STARLINK-2250 (48593 NORAD) Tracking and Keplerian Element Data

This shows tracking and keplerian element data for the satellite.

Feedback or suggestion? Click here.




ElementValue
Catalog48593
NameSTARLINK-2250
Epoch Orbit1158
Epoch Day210.96649804
Epoch Year2021
RAAN140.1358
Inclination53.055
Eccentricity0.0001785
Argument of Perigee80.5704
Mean Anonmoly279.5487
Mean Motion15.06397665
Decay Rate1.27E-05
L11 48593U 21041AS 21210.96649804 .00001270 00000-0 10418-3 0 9996
L22 48593 53.0550 140.1358 0001785 80.5704 279.5487 15.06397665 11581

Live tracking and technical data element details for STARLINK-2250 (NORAD 48593). STARLINK-2250 can be tracked NOW for your location showing map with azimuth and elevation plus other details from your city location.

Track the satellite on the map from your city or location and see movement details for azimuth, elevation, latitude, longitude, range, height, and movement on the map or in text.







IsCatalogInMostPopularTable: catalog: 48593, numindb: 21
Update: records affected: 1



GetName: 48593 STARLINK-2250

Hit Count: updated at: Sat, 31 Jul 2021 16:22:40 GMT